Covington, KY

7:05 AM EDT on August 18, 2017 (GMT -0400)
Cincinnati-Northern KY International

Weather History for KCVG - March, 2014

Change the Weather History Date:

Thursday, March 6, 2014

  Actual Average Record
Temperature  
Mean Temperature 35 °F 40 °F  
Max Temperature 47 °F 49 °F 74 °F (1973)
Min Temperature 22 °F 31 °F 0 °F (2015)
Degree Days  
Heating Degree Days 30 25  
Month to date heating degree days 217 155  
Since 1 July heating degree days 4461 3982  
Cooling Degree Days 0 0  
Month to date cooling degree days 0 0  
Year to date cooling degree days 0 0  
Moisture  
Dew Point 19 °F    
Average Humidity 56    
Maximum Humidity 74    
Minimum Humidity 37    
Precipitation  
Precipitation 0.00 in 0.12 in 2.59 in (1945)
Month to date precipitation 0.57 0.65  
Year to date precipitation 6.11 6.46  
Snow  
Snow 0.00 in 0.10 in 5.80 in (1967)
Month to date snowfall 2.2 0.8  
Since 1 July snowfall 45.8 19.4  
Snow Depth T in    
Sea Level Pressure  
Sea Level Pressure 30.22 in    
Wind  
Wind Speed 9 mph (ENE)    
Max Wind Speed 16 mph    
Max Gust Speed 24 mph    
Visibility 10 miles    
Events      
T = Trace of Precipitation, MM = Missing Value Source: NWS Daily Summary

Daily Weather History Graph

Daily Weather History Graph

Search for Another Location

Airport or City:

Trip Planner

Search our weather history database for the weather conditions in past years. The results will help you decide how hot, cold, wet, or windy it might be!

Date:

Astronomy

Mar. 06, 2014 Rise Set
Actual Time 7:03 AM EST 6:36 PM EST
Civil Twilight 6:37 AM EST 7:03 PM EST
Nautical Twilight 6:06 AM EST 7:34 PM EST
Astronomical Twilight 5:35 AM EST 8:05 PM EST
Moon 10:13 AM EST (3/6) No Moon Set
Length of Visible Light 12h 26m
Length of Day
11h 32m
Waxing Crescent, 32% of the Moon is Illuminated
Mar 6
Waxing Crescent
Mar 8
First Quarter
Mar 16
Full
Mar 23
Last Quarter
Mar 30
New

Hourly Weather History & Observations

Time (EST) Temp. Windchill Dew Point Humidity Pressure Visibility Wind Dir Wind Speed Gust Speed Precip Events Conditions
12:52 AM 26.1 °F 15.6 °F 18.0 °F 71% 30.33 in 10.0 mi NE 11.5 mph - N/A   Overcast
1:52 AM 25.0 °F 13.6 °F 16.0 °F 69% 30.30 in 10.0 mi ENE 12.7 mph - N/A   Overcast
2:52 AM 25.0 °F 13.6 °F 16.0 °F 69% 30.30 in 10.0 mi NE 12.7 mph - N/A   Overcast
3:52 AM 24.1 °F 13.1 °F 15.1 °F 69% 30.29 in 10.0 mi NE 11.5 mph - N/A   Overcast
4:52 AM 23.0 °F 13.1 °F 15.1 °F 72% 30.30 in 10.0 mi NE 9.2 mph - N/A   Overcast
5:52 AM 21.9 °F 10.4 °F 14.0 °F 72% 30.28 in 9.0 mi NE 11.5 mph - N/A   Mostly Cloudy
6:52 AM 21.9 °F 10.4 °F 14.0 °F 72% 30.30 in 10.0 mi NE 11.5 mph - N/A   Scattered Clouds
7:52 AM 23.0 °F 12.4 °F 12.9 °F 65% 30.30 in 8.0 mi NE 10.4 mph - N/A   Mostly Cloudy
8:52 AM 25.0 °F 14.2 °F 14.0 °F 63% 30.32 in 9.0 mi ENE 11.5 mph - N/A   Partly Cloudy
9:52 AM 28.0 °F 18.1 °F 15.1 °F 58% 30.30 in 10.0 mi East 11.5 mph - N/A   Mostly Cloudy
10:52 AM 32.0 °F 24.8 °F 17.1 °F 54% 30.29 in 10.0 mi East 8.1 mph - N/A   Mostly Cloudy
11:52 AM 36.0 °F 30.3 °F 19.0 °F 50% 30.25 in 10.0 mi ENE 6.9 mph - N/A   Scattered Clouds
12:52 PM 39.0 °F 34.8 °F 19.0 °F 45% 30.22 in 10.0 mi ENE 5.8 mph - N/A   Partly Cloudy
1:52 PM 41.0 °F 38.0 °F 19.9 °F 43% 30.19 in 10.0 mi NE 4.6 mph - N/A   Mostly Cloudy
2:52 PM 44.1 °F 40.8 °F 21.9 °F 42% 30.16 in 10.0 mi NE 5.8 mph - N/A   Mostly Cloudy
3:52 PM 46.0 °F 43.9 °F 21.9 °F 39% 30.14 in 10.0 mi ENE 4.6 mph - N/A   Mostly Cloudy
4:52 PM 46.0 °F 41.0 °F 23.0 °F 40% 30.13 in 10.0 mi NNE 10.4 mph - N/A   Mostly Cloudy
5:52 PM 44.1 °F 39.0 °F 24.1 °F 45% 30.13 in 10.0 mi ENE 9.2 mph - N/A   Mostly Cloudy
6:52 PM 39.0 °F 32.8 °F 26.1 °F 60% 30.14 in 10.0 mi East 9.2 mph - N/A   Mostly Cloudy
7:52 PM 39.0 °F 32.3 °F 26.1 °F 60% 30.14 in 10.0 mi East 10.4 mph - N/A   Scattered Clouds
8:52 PM 37.0 °F 31.6 °F 25.0 °F 62% 30.14 in 10.0 mi East 6.9 mph - N/A   Scattered Clouds
9:52 PM 37.0 °F 31.6 °F 25.0 °F 62% 30.13 in 10.0 mi ENE 6.9 mph - N/A   Clear
10:52 PM 35.1 °F 32.2 °F 25.0 °F 67% 30.12 in 10.0 mi NE 3.5 mph - N/A   Clear
11:52 PM 35.1 °F 32.2 °F 24.1 °F 64% 30.09 in 10.0 mi East 3.5 mph - N/A   Clear